QPF
0.00 0.00 0.00 0.00 0.00 0.00 0.00 0.00 0.00 0.00 0.00 0.00 0.00 0.00 0.00 0.00 0.00 0.00 0.00 0.00 0.00 0.00 0.00 0.00 0.01 0.03 0.05 0.07 0.12 0.16 0.17 0.21 0.20 0.20 0.21 0.21 0.15 0.07 0.04 0.02 0.01 0.01 0.00
0.00 0.00 0.00 0.00 0.00 0.00 0.00 0.00 0.00 0.00 0.00 0.00 0.00 0.00 0.00 0.00 0.00 0.00 0.00 0.00 0.01 0.00 0.01 0.01 0.01 0.01 0.03 0.05 0.09 0.13 0.15 0.19 0.22 0.26 0.29 0.25 0.19 0.12 0.07 0.04 0.01 0.00 0.00
0.00 0.00 0.00 0.00 0.00 0.00 0.00 0.00 0.00 0.00 0.00 0.00 0.00 0.00 0.00 0.00 0.00 0.00 0.00 0.00 0.01 0.00 0.00 0.01 0.01 0.01 0.02 0.03 0.05 0.09 0.12 0.16 0.21 0.28 0.36 0.34 0.27 0.18 0.10 0.06 0.03 0.01 0.00
0.00 0.00 0.00 0.00 0.00 0.00 0.00 0.00 0.00 0.00 0.00 0.00 0.00 0.00 0.00 0.00 0.00 0.00 0.01 0.01 0.01 0.01 0.00 0.00 0.00 0.01 0.01 0.02 0.03 0.06 0.10 0.14 0.20 0.29 0.37 0.42 0.36 0.24 0.14 0.08 0.04 0.02 0.01
0.00 0.00 0.00 0.00 0.00 0.00 0.00 0.00 0.00 0.00 0.00 0.00 0.00 0.00 0.00 0.00 0.00 0.00 0.01 0.01 0.01 0.01 0.01 0.01 0.00 0.01 0.01 0.02 0.02 0.03 0.08 0.12 0.16 0.24 0.34 0.45 0.45 0.29 0.16 0.10 0.06 0.03 0.01
0.00 0.00 0.00 0.00 0.00 0.00 0.00 0.00 0.00 0.00 0.00 0.00 0.00 0.00 0.00 0.00 0.00 0.00 0.01 0.01 0.02 0.02 0.01 0.01 0.01 0.01 0.01 0.02 0.02 0.02 0.04 0.09 0.14 0.19 0.26 0.35 0.44 0.36 0.20 0.12 0.08 0.05 0.02
0.00 0.00 0.00 0.00 0.00 0.00 0.00 0.00 0.00 0.00 0.00 0.00 0.00 0.00 0.00 0.00 0.00 0.01 0.01 0.02 0.02 0.02 0.02 0.02 0.01 0.01 0.01 0.01 0.02 0.02 0.03 0.05 0.11 0.17 0.22 0.27 0.37 0.42 0.31 0.17 0.09 0.06 0.03
0.00 0.00 0.00 0.00 0.00 0.00 0.00 0.00 0.00 0.00 0.00 0.00 0.00 0.00 0.00 0.00 0.00 0.00 0.01 0.01 0.02 0.02 0.02 0.02 0.01 0.02 0.02 0.03 0.02 0.02 0.02 0.03 0.05 0.11 0.19 0.25 0.32 0.44 0.42 0.30 0.17 0.08 0.05
0.00 0.00 0.00 0.00 0.00 0.00 0.00 0.00 0.00 0.01 0.00 0.00 0.00 0.01 0.01 0.01 0.01 0.00 0.01 0.01 0.01 0.02 0.03 0.02 0.02 0.02 0.02 0.03 0.03 0.03 0.02 0.03 0.04 0.07 0.16 0.28 0.34 0.39 0.49 0.44 0.28 0.13 0.06
0.00 0.00 0.00 0.00 0.00 0.00 0.00 0.00 0.00 0.01 0.01 0.00 0.01 0.01 0.01 0.01 0.01 0.00 0.01 0.01 0.02 0.02 0.03 0.03 0.03 0.03 0.03 0.03 0.04 0.04 0.03 0.03 0.04 0.05 0.11 0.22 0.33 0.36 0.40 0.42 0.33 0.19 0.09
0.00 0.00 0.00 0.00 0.00 0.00 0.01 0.01 0.01 0.01 0.01 0.01 0.01 0.01 0.01 0.01 0.00 0.00 0.00 0.01 0.02 0.02 0.03 0.04 0.04 0.04 0.04 0.04 0.04 0.04 0.03 0.04 0.06 0.05 0.08 0.16 0.27 0.35 0.36 0.36 0.32 0.22 0.12
0.00 0.00 0.00 0.00 0.00 0.00 0.00 0.01 0.01 0.02 0.02 0.01 0.01 0.01 0.01 0.01 0.01 0.00 0.00 0.01 0.02 0.03 0.05 0.07 0.06 0.06 0.06 0.06 0.05 0.05 0.04 0.05 0.07 0.08 0.08 0.13 0.19 0.26 0.31 0.34 0.32 0.23 0.15
0.00 0.00 0.00 0.00 0.00 0.01 0.01 0.01 0.01 0.02 0.02 0.01 0.01 0.01 0.01 0.02 0.01 0.00 0.00 0.01 0.01 0.03 0.05 0.07 0.07 0.07 0.06 0.05 0.04 0.05 0.04 0.04 0.06 0.07 0.08 0.09 0.13 0.18 0.27 0.35 0.39 0.32 0.20
0.00 0.00 0.00 0.00 0.00 0.01 0.01 0.02 0.02 0.02 0.02 0.02 0.01 0.01 0.01 0.01 0.01 0.01 0.01 0.01 0.01 0.02 0.03 0.04 0.06 0.08 0.07 0.05 0.04 0.04 0.03 0.03 0.04 0.06 0.07 0.09 0.13 0.18 0.24 0.33 0.41 0.37 0.25
0.00 0.00 0.00 0.00 0.00 0.01 0.01 0.02 0.02 0.02 0.02 0.01 0.01 0.01 0.01 0.01 0.01 0.00 0.01 0.01 0.01 0.02 0.03 0.05 0.06 0.07 0.06 0.05 0.03 0.02 0.02 0.02 0.02 0.04 0.07 0.09 0.12 0.14 0.20 0.27 0.35 0.36 0.25
0.00 0.00 0.00 0.00 0.01 0.01 0.01 0.01 0.02 0.01 0.01 0.01 0.01 0.01 0.01 0.01 0.01 0.00 0.00 0.00 0.01 0.01 0.02 0.04 0.06 0.06 0.06 0.05 0.04 0.02 0.02 0.01 0.01 0.02 0.06 0.08 0.11 0.12 0.16 0.22 0.26 0.29 0.26
0.00 0.00 0.00 0.00 0.00 0.01 0.01 0.02 0.02 0.01 0.02 0.02 0.02 0.03 0.02 0.01 0.01 0.00 0.00 0.00 0.00 0.01 0.01 0.03 0.04 0.03 0.04 0.04 0.04 0.02 0.02 0.02 0.01 0.02 0.03 0.07 0.09 0.11 0.13 0.18 0.20 0.21 0.22
0.00 0.00 0.00 0.00 0.00 0.01 0.02 0.02 0.02 0.02 0.02 0.03 0.03 0.03 0.03 0.02 0.01 0.00 0.00 0.00 0.01 0.01 0.01 0.01 0.02 0.02 0.03 0.03 0.03 0.02 0.02 0.02 0.02 0.02 0.03 0.06 0.09 0.10 0.11 0.15 0.17 0.17 0.17
0.00 0.00 0.00 0.00 0.00 0.01 0.02 0.02 0.03 0.03 0.02 0.02 0.03 0.02 0.03 0.02 0.01 0.01 0.01 0.01 0.02 0.02 0.01 0.01 0.02 0.03 0.03 0.03 0.03 0.02 0.02 0.03 0.03 0.02 0.02 0.04 0.07 0.10 0.11 0.11 0.14 0.15 0.15
0.00 0.00 0.00 0.00 0.00 0.01 0.02 0.02 0.03 0.02 0.02 0.02 0.03 0.03 0.02 0.02 0.01 0.01 0.01 0.02 0.03 0.03 0.03 0.02 0.03 0.04 0.04 0.03 0.03 0.03 0.03 0.03 0.03 0.02 0.02 0.03 0.05 0.08 0.10 0.11 0.11 0.12 0.11
0.00 0.00 0.00 0.00 0.01 0.01 0.02 0.02 0.03 0.02 0.02 0.02 0.02 0.02 0.01 0.01 0.01 0.02 0.02 0.03 0.03 0.03 0.03 0.04 0.04 0.04 0.04 0.04 0.03 0.03 0.02 0.02 0.03 0.02 0.02 0.02 0.03 0.05 0.08 0.10 0.11 0.09 0.09
0.00 0.00 0.00 0.00 0.01 0.02 0.01 0.02 0.02 0.02 0.02 0.01 0.01 0.01 0.01 0.01 0.02 0.02 0.03 0.03 0.03 0.03 0.02 0.02 0.03 0.03 0.03 0.03 0.03 0.03 0.03 0.03 0.03 0.03 0.02 0.02 0.03 0.04 0.05 0.08 0.10 0.09 0.08
0.00 0.00 0.00 0.01 0.01 0.02 0.03 0.03 0.02 0.02 0.01 0.01 0.01 0.01 0.01 0.01 0.02 0.02 0.02 0.02 0.02 0.02 0.03 0.02 0.02 0.03 0.03 0.03 0.03 0.02 0.02 0.03 0.03 0.02 0.02 0.03 0.04 0.04 0.04 0.06 0.08 0.08 0.07
0.00 0.00 0.00 0.00 0.01 0.02 0.03 0.04 0.03 0.01 0.01 0.02 0.01 0.01 0.01 0.02 0.02 0.02 0.02 0.02 0.02 0.02 0.03 0.03 0.03 0.02 0.02 0.02 0.02 0.01 0.01 0.01 0.01 0.02 0.03 0.03 0.04 0.05 0.06 0.05 0.07 0.08 0.08
0.00 0.00 0.00 0.00 0.00 0.02 0.03 0.03 0.03 0.02 0.02 0.02 0.01 0.01 0.01 0.02 0.02 0.02 0.02 0.02 0.02 0.02 0.02 0.02 0.03 0.03 0.02 0.01 0.01 0.02 0.02 0.01 0.01 0.02 0.03 0.04 0.04 0.05 0.07 0.07 0.07 0.10 0.11
0.00 0.00 0.00 0.00 0.00 0.01 0.02 0.03 0.03 0.04 0.03 0.03 0.03 0.02 0.01 0.02 0.02 0.03 0.03 0.02 0.03 0.03 0.03 0.04 0.04 0.04 0.03 0.02 0.02 0.01 0.01 0.01 0.02 0.03 0.04 0.04 0.06 0.07 0.08 0.09 0.10 0.12 0.14
MSLP
1013.53 1013.38 1013.28 1013.20 1013.12 1013.02 1012.90 1012.75 1012.57 1012.38 1012.18 1011.96 1011.73 1011.48 1011.21 1010.94 1010.66 1010.41 1010.18 1010.01 1009.90 1009.85 1009.83 1009.84 1009.85 1009.83 1009.77 1009.66 1009.51 1009.34 1009.17 1009.02 1008.92 1008.86 1008.87 1008.93 1009.03 1009.15 1009.30 1009.47 1009.66 1009.88 1010.13
1013.27 1013.10 1012.98 1012.87 1012.76 1012.65 1012.51 1012.36 1012.19 1012.01 1011.81 1011.59 1011.35 1011.08 1010.80 1010.50 1010.20 1009.92 1009.68 1009.48 1009.34 1009.26 1009.22 1009.21 1009.21 1009.20 1009.16 1009.10 1009.01 1008.93 1008.85 1008.81 1008.82 1008.87 1008.96 1009.10 1009.26 1009.42 1009.60 1009.77 1009.95 1010.15 1010.37
1013.00 1012.82 1012.67 1012.53 1012.39 1012.24 1012.08 1011.90 1011.72 1011.53 1011.32 1011.10 1010.86 1010.59 1010.30 1010.00 1009.69 1009.40 1009.14 1008.93 1008.78 1008.67 1008.61 1008.58 1008.57 1008.56 1008.54 1008.51 1008.48 1008.47 1008.48 1008.52 1008.61 1008.75 1008.93 1009.13 1009.35 1009.57 1009.78 1010.00 1010.21 1010.43 1010.67
1012.70 1012.52 1012.35 1012.18 1011.99 1011.79 1011.58 1011.37 1011.15 1010.94 1010.73 1010.50 1010.26 1010.01 1009.73 1009.43 1009.13 1008.85 1008.59 1008.37 1008.20 1008.07 1008.00 1007.95 1007.93 1007.92 1007.92 1007.92 1007.93 1007.96 1008.02 1008.13 1008.28 1008.47 1008.70 1008.96 1009.23 1009.51 1009.79 1010.06 1010.34 1010.63 1010.93
1012.37 1012.20 1012.01 1011.79 1011.55 1011.30 1011.04 1010.78 1010.53 1010.29 1010.06 1009.84 1009.61 1009.36 1009.10 1008.82 1008.53 1008.25 1007.99 1007.77 1007.59 1007.45 1007.36 1007.30 1007.28 1007.27 1007.27 1007.29 1007.33 1007.39 1007.48 1007.62 1007.79 1008.01 1008.27 1008.56 1008.88 1009.21 1009.56 1009.92 1010.29 1010.69 1011.09
1012.03 1011.86 1011.65 1011.39 1011.10 1010.79 1010.47 1010.17 1009.88 1009.62 1009.37 1009.15 1008.92 1008.69 1008.44 1008.17 1007.89 1007.62 1007.35 1007.12 1006.92 1006.77 1006.67 1006.60 1006.57 1006.57 1006.59 1006.62 1006.67 1006.75 1006.86 1007.00 1007.18 1007.40 1007.67 1007.97 1008.31 1008.69 1009.11 1009.56 1010.05 1010.57 1011.11
1011.69 1011.52 1011.28 1010.99 1010.65 1010.29 1009.92 1009.57 1009.24 1008.96 1008.70 1008.46 1008.24 1008.00 1007.76 1007.49 1007.22 1006.93 1006.66 1006.41 1006.19 1006.03 1005.91 1005.84 1005.81 1005.81 1005.85 1005.90 1005.97 1006.07 1006.18 1006.32 1006.49 1006.70 1006.95 1007.26 1007.61 1008.02 1008.50 1009.04 1009.63 1010.28 1010.96
1011.37 1011.18 1010.93 1010.60 1010.23 1009.82 1009.41 1009.01 1008.65 1008.33 1008.05 1007.80 1007.56 1007.32 1007.07 1006.80 1006.50 1006.20 1005.91 1005.63 1005.40 1005.21 1005.09 1005.01 1004.99 1005.01 1005.07 1005.15 1005.25 1005.36 1005.48 1005.62 1005.79 1005.98 1006.22 1006.51 1006.86 1007.30 1007.81 1008.41 1009.09 1009.85 1010.65
1011.06 1010.87 1010.60 1010.24 1009.83 1009.39 1008.93 1008.50 1008.10 1007.75 1007.44 1007.16 1006.90 1006.64 1006.37 1006.08 1005.77 1005.45 1005.13 1004.83 1004.58 1004.38 1004.24 1004.17 1004.16 1004.21 1004.29 1004.41 1004.54 1004.69 1004.83 1004.98 1005.15 1005.33 1005.56 1005.83 1006.18 1006.61 1007.14 1007.77 1008.51 1009.34 1010.24
1010.78 1010.58 1010.28 1009.90 1009.46 1008.98 1008.48 1008.01 1007.57 1007.18 1006.84 1006.53 1006.25 1005.96 1005.67 1005.36 1005.03 1004.70 1004.36 1004.05 1003.78 1003.57 1003.44 1003.37 1003.38 1003.46 1003.58 1003.74 1003.92 1004.10 1004.28 1004.46 1004.63 1004.82 1005.03 1005.29 1005.62 1006.04 1006.56 1007.20 1007.95 1008.81 1009.76
1010.51 1010.28 1009.97 1009.56 1009.09 1008.57 1008.04 1007.52 1007.04 1006.61 1006.23 1005.89 1005.58 1005.28 1004.98 1004.66 1004.33 1003.99 1003.66 1003.35 1003.08 1002.88 1002.75 1002.70 1002.74 1002.84 1003.00 1003.20 1003.42 1003.64 1003.87 1004.07 1004.27 1004.47 1004.68 1004.93 1005.24 1005.63 1006.12 1006.73 1007.47 1008.31 1009.26
1010.23 1009.98 1009.64 1009.20 1008.69 1008.13 1007.56 1007.01 1006.49 1006.02 1005.60 1005.23 1004.91 1004.60 1004.30 1004.00 1003.69 1003.38 1003.07 1002.79 1002.55 1002.37 1002.26 1002.22 1002.27 1002.40 1002.58 1002.81 1003.07 1003.33 1003.59 1003.83 1004.05 1004.27 1004.48 1004.72 1005.01 1005.37 1005.82 1006.39 1007.08 1007.88 1008.78
1009.94 1009.65 1009.27 1008.80 1008.26 1007.67 1007.06 1006.46 1005.90 1005.40 1004.96 1004.57 1004.24 1003.95 1003.68 1003.42 1003.16 1002.90 1002.65 1002.42 1002.22 1002.07 1001.98 1001.96 1002.02 1002.15 1002.35 1002.59 1002.86 1003.14 1003.42 1003.69 1003.93 1004.16 1004.38 1004.62 1004.89 1005.22 1005.64 1006.15 1006.77 1007.51 1008.34
1009.62 1009.30 1008.88 1008.37 1007.80 1007.17 1006.53 1005.90 1005.31 1004.78 1004.32 1003.94 1003.62 1003.36 1003.14 1002.94 1002.75 1002.57 1002.40 1002.23 1002.09 1001.98 1001.92 1001.91 1001.97 1002.09 1002.27 1002.49 1002.76 1003.03 1003.32 1003.59 1003.84 1004.08 1004.32 1004.55 1004.82 1005.13 1005.51 1005.97 1006.53 1007.20 1007.96
1009.27 1008.92 1008.47 1007.93 1007.33 1006.67 1006.01 1005.35 1004.74 1004.20 1003.74 1003.37 1003.08 1002.86 1002.70 1002.58 1002.48 1002.39 1002.30 1002.21 1002.12 1002.06 1002.01 1002.00 1002.04 1002.13 1002.27 1002.46 1002.69 1002.94 1003.20 1003.46 1003.72 1003.97 1004.21 1004.45 1004.72 1005.02 1005.38 1005.81 1006.33 1006.93 1007.63
1008.92 1008.54 1008.06 1007.51 1006.88 1006.22 1005.54 1004.87 1004.26 1003.71 1003.26 1002.91 1002.65 1002.49 1002.39 1002.34 1002.32 1002.31 1002.30 1002.28 1002.24 1002.20 1002.17 1002.15 1002.15 1002.20 1002.28 1002.41 1002.58 1002.79 1003.01 1003.25 1003.50 1003.75 1004.00 1004.26 1004.53 1004.85 1005.21 1005.63 1006.12 1006.69 1007.34
1008.57 1008.17 1007.69 1007.13 1006.50 1005.83 1005.15 1004.49 1003.88 1003.35 1002.91 1002.57 1002.35 1002.22 1002.18 1002.19 1002.23 1002.28 1002.33 1002.35 1002.35 1002.32 1002.28 1002.23 1002.20 1002.19 1002.21 1002.28 1002.38 1002.53 1002.72 1002.93 1003.16 1003.41 1003.67 1003.95 1004.25 1004.58 1004.96 1005.40 1005.89 1006.45 1007.07
1008.23 1007.83 1007.36 1006.80 1006.19 1005.54 1004.87 1004.23 1003.63 1003.11 1002.68 1002.37 1002.16 1002.06 1002.04 1002.08 1002.15 1002.23 1002.30 1002.34 1002.34 1002.31 1002.25 1002.17 1002.10 1002.03 1002.00 1002.01 1002.06 1002.16 1002.31 1002.49 1002.71 1002.96 1003.23 1003.53 1003.87 1004.23 1004.64 1005.10 1005.62 1006.18 1006.80
1007.91 1007.53 1007.07 1006.54 1005.95 1005.32 1004.68 1004.05 1003.48 1002.97 1002.56 1002.25 1002.05 1001.94 1001.92 1001.96 1002.03 1002.11 1002.17 1002.20 1002.18 1002.13 1002.04 1001.94 1001.82 1001.72 1001.65 1001.62 1001.63 1001.70 1001.82 1001.99 1002.19 1002.44 1002.73 1003.05 1003.41 1003.81 1004.26 1004.75 1005.29 1005.88 1006.51
1007.61 1007.25 1006.82 1006.31 1005.75 1005.15 1004.54 1003.94 1003.38 1002.89 1002.48 1002.17 1001.96 1001.84 1001.80 1001.80 1001.84 1001.88 1001.90 1001.90 1001.85 1001.77 1001.66 1001.53 1001.39 1001.27 1001.19 1001.14 1001.14 1001.20 1001.30 1001.47 1001.67 1001.92 1002.22 1002.55 1002.93 1003.35 1003.82 1004.34 1004.91 1005.53 1006.18
1007.33 1006.99 1006.58 1006.10 1005.57 1004.99 1004.41 1003.83 1003.30 1002.82 1002.42 1002.10 1001.87 1001.72 1001.63 1001.59 1001.57 1001.56 1001.53 1001.48 1001.39 1001.28 1001.15 1001.01 1000.87 1000.76 1000.68 1000.64 1000.66 1000.72 1000.84 1001.00 1001.21 1001.46 1001.75 1002.09 1002.47 1002.89 1003.37 1003.90 1004.49 1005.11 1005.78
1007.06 1006.74 1006.35 1005.88 1005.36 1004.81 1004.25 1003.70 1003.18 1002.71 1002.31 1001.99 1001.74 1001.56 1001.42 1001.33 1001.25 1001.18 1001.10 1001.00 1000.88 1000.75 1000.61 1000.48 1000.36 1000.27 1000.22 1000.22 1000.27 1000.36 1000.49 1000.66 1000.87 1001.11 1001.39 1001.70 1002.06 1002.46 1002.93 1003.45 1004.02 1004.65 1005.32
1006.81 1006.49 1006.10 1005.65 1005.14 1004.60 1004.05 1003.51 1003.01 1002.56 1002.17 1001.85 1001.58 1001.38 1001.21 1001.07 1000.94 1000.82 1000.69 1000.56 1000.42 1000.27 1000.14 1000.03 999.95 999.91 999.91 999.96 1000.04 1000.17 1000.32 1000.50 1000.70 1000.91 1001.15 1001.43 1001.74 1002.10 1002.52 1003.00 1003.55 1004.16 1004.82
1006.58 1006.27 1005.87 1005.41 1004.90 1004.37 1003.83 1003.31 1002.83 1002.40 1002.02 1001.70 1001.44 1001.22 1001.03 1000.86 1000.71 1000.55 1000.39 1000.24 1000.09 999.95 999.84 999.76 999.72 999.73 999.79 999.89 1000.02 1000.18 1000.34 1000.52 1000.70 1000.88 1001.07 1001.28 1001.52 1001.81 1002.17 1002.59 1003.09 1003.66 1004.29
1006.40 1006.08 1005.68 1005.21 1004.70 1004.17 1003.64 1003.14 1002.68 1002.27 1001.91 1001.61 1001.36 1001.14 1000.95 1000.77 1000.60 1000.43 1000.27 1000.10 999.96 999.84 999.75 999.71 999.72 999.78 999.89 1000.03 1000.20 1000.38 1000.55 1000.71 1000.86 1000.99 1001.11 1001.25 1001.41 1001.62 1001.90 1002.25 1002.68 1003.19 1003.78
1006.27 1005.96 1005.56 1005.09 1004.58 1004.05 1003.54 1003.06 1002.62 1002.24 1001.91 1001.63 1001.40 1001.20 1001.02 1000.84 1000.67 1000.50 1000.33 1000.18 1000.04 999.94 999.89 999.88 999.93 1000.03 1000.18 1000.35 1000.54 1000.73 1000.89 1001.03 1001.13 1001.21 1001.27 1001.32 1001.40 1001.53 1001.71 1001.98 1002.34 1002.80 1003.34
Thickness
5647 5642 5637 5632 5628 5623 5618 5614 5611 5608 5606 5604 5602 5601 5600 5599 5599 5599 5600 5602 5604 5607 5610 5613 5617 5621 5626 5631 5636 5641 5647 5652 5658 5668 5678 5685 5689 5693 5696 5701 5705 5708 5712
5643 5637 5631 5626 5621 5616 5611 5608 5604 5601 5598 5596 5594 5592 5591 5590 5590 5589 5590 5592 5593 5595 5599 5602 5607 5612 5616 5621 5626 5632 5638 5645 5650 5657 5666 5673 5678 5683 5687 5691 5694 5699 5703
5638 5632 5625 5620 5614 5609 5605 5601 5597 5594 5591 5588 5585 5583 5581 5581 5580 5579 5580 5581 5583 5585 5588 5591 5596 5599 5604 5610 5616 5622 5629 5637 5643 5649 5656 5664 5668 5672 5675 5679 5683 5689 5694
5633 5626 5620 5614 5609 5604 5600 5596 5591 5587 5584 5580 5577 5575 5573 5572 5571 5570 5570 5570 5572 5574 5577 5580 5584 5588 5593 5599 5606 5612 5619 5626 5633 5641 5648 5653 5658 5663 5667 5669 5672 5678 5684
5628 5621 5615 5610 5605 5599 5594 5590 5586 5581 5578 5574 5570 5567 5565 5563 5563 5561 5560 5560 5560 5561 5564 5568 5572 5577 5583 5588 5595 5602 5608 5615 5623 5631 5638 5644 5650 5654 5659 5663 5665 5668 5673
5623 5617 5612 5606 5600 5594 5589 5585 5580 5576 5572 5568 5564 5561 5558 5558 5557 5554 5551 5549 5548 5548 5550 5554 5558 5564 5570 5577 5585 5592 5599 5606 5613 5621 5629 5636 5644 5650 5654 5657 5659 5662 5665
5619 5613 5607 5601 5595 5589 5585 5580 5575 5570 5566 5562 5559 5555 5553 5551 5548 5545 5542 5539 5537 5537 5538 5540 5546 5553 5558 5563 5571 5580 5588 5597 5606 5613 5621 5630 5637 5644 5648 5650 5653 5657 5660
5615 5608 5602 5596 5590 5585 5579 5574 5569 5565 5561 5557 5554 5550 5547 5545 5542 5538 5535 5531 5528 5527 5528 5529 5533 5538 5545 5550 5557 5566 5575 5585 5596 5606 5615 5623 5631 5638 5643 5648 5649 5648 5650
5610 5603 5597 5591 5585 5580 5575 5570 5565 5561 5557 5553 5549 5546 5542 5539 5536 5532 5528 5523 5521 5520 5520 5521 5523 5528 5534 5539 5545 5554 5563 5572 5583 5594 5604 5613 5621 5629 5634 5636 5638 5641 5642
5606 5599 5593 5587 5581 5576 5571 5566 5562 5557 5553 5549 5545 5541 5536 5533 5530 5527 5522 5517 5514 5513 5512 5513 5516 5519 5524 5529 5535 5543 5552 5562 5571 5581 5591 5602 5611 5619 5627 5634 5639 5641 5642
5602 5595 5589 5583 5577 5572 5568 5563 5558 5553 5549 5544 5540 5536 5532 5529 5525 5522 5517 5511 5509 5507 5505 5505 5507 5511 5515 5521 5528 5536 5545 5553 5561 5571 5581 5592 5602 5611 5620 5628 5635 5640 5642
5598 5591 5585 5579 5574 5571 5564 5559 5554 5549 5544 5540 5535 5531 5527 5523 5520 5516 5512 5508 5504 5500 5499 5499 5501 5504 5509 5513 5520 5528 5536 5544 5552 5562 5573 5584 5595 5604 5614 5622 5628 5634 5639
5594 5586 5580 5576 5571 5566 5561 5556 5551 5546 5540 5536 5531 5526 5522 5518 5514 5511 5508 5504 5501 5497 5495 5496 5498 5500 5504 5508 5515 5522 5528 5536 5545 5554 5566 5577 5588 5598 5606 5613 5618 5623 5627
5589 5583 5578 5573 5569 5564 5558 5553 5548 5544 5539 5533 5528 5523 5517 5513 5509 5505 5502 5499 5498 5495 5493 5494 5495 5497 5500 5505 5510 5516 5524 5532 5540 5549 5559 5569 5579 5589 5598 5606 5612 5616 5617
5586 5580 5575 5570 5566 5561 5557 5552 5547 5543 5537 5531 5526 5520 5514 5510 5506 5502 5498 5496 5494 5493 5492 5491 5492 5493 5497 5501 5506 5512 5519 5526 5534 5543 5553 5563 5573 5583 5592 5599 5606 5611 5613
5582 5577 5573 5568 5564 5560 5556 5553 5550 5544 5539 5533 5526 5518 5513 5508 5504 5500 5496 5494 5493 5492 5491 5492 5494 5496 5499 5502 5507 5512 5517 5524 5532 5540 5549 5559 5568 5577 5586 5594 5601 5606 5610
5579 5574 5570 5566 5563 5559 5555 5551 5548 5546 5541 5534 5527 5520 5513 5507 5503 5499 5495 5493 5492 5492 5492 5494 5496 5499 5501 5505 5509 5513 5519 5525 5531 5538 5547 5555 5564 5573 5580 5588 5595 5601 5605
5577 5573 5569 5565 5561 5558 5554 5550 5546 5542 5539 5534 5528 5521 5514 5508 5503 5499 5495 5493 5493 5493 5494 5496 5499 5502 5505 5508 5512 5516 5521 5526 5531 5538 5546 5553 5561 5569 5577 5584 5591 5597 5601
5574 5570 5566 5563 5561 5557 5554 5550 5547 5543 5538 5533 5528 5522 5516 5510 5505 5500 5497 5495 5496 5497 5499 5501 5504 5507 5510 5514 5517 5521 5525 5529 5534 5539 5545 5552 5559 5566 5573 5580 5586 5591 5596
5572 5569 5566 5562 5560 5557 5554 5551 5547 5543 5539 5534 5529 5524 5518 5511 5507 5505 5502 5500 5500 5502 5504 5507 5510 5513 5516 5519 5522 5525 5528 5532 5536 5541 5546 5552 5558 5564 5570 5576 5582 5588 5592
5568 5565 5564 5561 5558 5556 5554 5551 5548 5544 5540 5536 5532 5527 5522 5516 5513 5511 5509 5507 5507 5509 5511 5514 5516 5518 5521 5524 5526 5529 5532 5535 5538 5542 5547 5552 5557 5562 5567 5573 5578 5583 5587
5565 5561 5559 5558 5557 5555 5553 5551 5548 5545 5541 5538 5534 5530 5527 5523 5520 5518 5516 5515 5515 5516 5518 5520 5522 5525 5527 5529 5531 5533 5536 5538 5542 5545 5549 5553 5557 5561 5566 5571 5575 5578 5582
5561 5558 5557 5556 5555 5554 5553 5551 5548 5545 5542 5539 5536 5533 5530 5527 5525 5523 5522 5521 5521 5522 5523 5525 5527 5529 5531 5533 5536 5538 5540 5542 5546 5549 5552 5554 5557 5561 5565 5569 5573 5576 5580
5558 5556 5555 5553 5553 5551 5551 5549 5548 5545 5543 5540 5538 5535 5533 5531 5529 5527 5526 5525 5525 5526 5527 5528 5530 5532 5534 5536 5538 5540 5543 5546 5548 5551 5554 5557 5559 5562 5565 5568 5572 5575 5578
5555 5553 5552 5550 5549 5548 5548 5547 5546 5544 5543 5541 5539 5536 5534 5532 5531 5530 5529 5528 5528 5528 5529 5530 5531 5532 5534 5536 5537 5540 5542 5545 5548 5551 5555 5557 5559 5562 5565 5567 5570 5572 5575
5551 5550 5547 5546 5545 5544 5544 5544 5543 5543 5541 5540 5538 5536 5535 5533 5532 5531 5530 5529 5529 5529 5529 5530 5531 5531 5532 5533 5535 5537 5540 5543 5546 5550 5553 5556 5558 5561 5564 5566 5568 5570 5572